Regional Weather Roundup
Issued by NWS

Home | Current Version | Previous Version | Graphics & Text | Print | Product List | Glossary Off
Versions: 1 2 3 4 5 6 7 8 9 10 11 12 13 14 15 16 17 18 19 20 21 22 23 24 25 26 27 28 29 30 31 32 33 34 35 36 37 38 39 40 41 42 43 44 45 46 47 48 49 50

000
ASUS43 KTOP 280608
RWRKS

WEATHER ROUNDUP FOR KANSAS
NATIONAL WEATHER SERVICE GOODLAND KS
100 AM CDT THU AUG 28 2014

NOTE:  "FAIR" INDICATES FEW OR NO CLOUDS BELOW 12,000 FEET WITH NO
SIGNIFICANT WEATHER AND/OR OBSTRUCTIONS TO VISIBILITY.

KSZ001>006-013>018-027>032-041>047-280700-
NORTHWEST KANSAS

CITY           SKY/WX    TMP DP  RH WIND       PRES   REMARKS
GOODLAND       CLOUDY    68  66  93 SW5       30.03R
6HR MIN TEMP:  67; 6HR MAX TEMP:  81;

HAYS           CLOUDY    70  64  83 NE6       29.99S
HILL CITY      FAIR      66  64  93 E5        29.99F
6HR MIN TEMP:  66; 6HR MAX TEMP:  73; 6HR PCP:  2.19;

RUSSELL        MOCLDY    74  68  81 S6        29.97F
6HR MIN TEMP:  74; 6HR MAX TEMP:  79; 6HR PCP: TRACE;

$$

KSZ061>065-074>080-084>089-280700-
SOUTHWEST KANSAS

CITY           SKY/WX    TMP DP  RH WIND       PRES   REMARKS
DODGE CITY     MOCLDY    72  63  73 S9        29.99S
6HR MIN TEMP:  71; 6HR MAX TEMP:  83;

ELKHART          N/A     69  60  73 S15         N/A
GARDEN CITY    FAIR      67  65  93 SE6       29.99S
6HR MIN TEMP:  67; 6HR MAX TEMP:  77;

GREAT BEND     MOCLDY    73  64  73 S6        29.98S
LIBERAL        FAIR      72  63  73 S12       30.01S
PRATT          FAIR      75  63  64 S8        30.00S
$$

KSZ066>073-081>083-090>101-280700-
SOUTHEAST KANSAS

CITY           SKY/WX    TMP DP  RH WIND       PRES   REMARKS
CHANUTE        FAIR      78  67  68 SE7       30.01F
6HR MIN TEMP:  78; 6HR MAX TEMP:  93;

COFFEYVILLE    FAIR      80  69  69 SE8       30.00R
6HR MIN TEMP:  80; 6HR MAX TEMP:  93;

HUTCHINSON     FAIR      82  64  54 SE12      29.97S
6HR MIN TEMP:  81; 6HR MAX TEMP:  85;

MEDICINE LODGE   N/A     82  64  54 S6        29.97S
NEWTON         FAIR      79  61  53 S12       30.02F
PARSONS        FAIR      79  68  69 SE3       30.01F
6HR MIN TEMP:  79; 6HR MAX TEMP:  93;

WICHITA INTL   MOCLDY    80  64  58 S13       29.98S
6HR MIN TEMP:  80; 6HR MAX TEMP:  89;

WICHITA JABRA  FAIR      81  63  54 S12       29.99S
6HR MIN TEMP:  81; 6HR MAX TEMP:  89;

WICHITA MCCONL FAIR      80  64  57 SE9       29.99F
WINFIELD       FAIR      78  65  63 SE9       30.00F
6HR MIN TEMP:  78; 6HR MAX TEMP:  90;

$$

KSZ007>012-019>026-033>040-048>060-102>105-280700-
NORTHEAST KANSAS

CITY           SKY/WX    TMP DP  RH WIND       PRES   REMARKS
CONCORDIA      CLOUDY    74  72  93 E6        29.97S
6HR MIN TEMP:  74; 6HR MAX TEMP:  80; 6HR PCP:  0.01;

EMPORIA        FAIR      79  67  66 SE13      30.00F
6HR MIN TEMP:  79; 6HR MAX TEMP:  89;

LAWRENCE       FAIR      81  73  76 SE6       30.01F
6HR MIN TEMP:  78; 6HR MAX TEMP:  85; 6HR PCP: TRACE;

MANHATTAN      FAIR      79  71  76 SE8       29.97F
6HR MIN TEMP:  78; 6HR MAX TEMP:  85;

MARYSVILLE     CLOUDY    73  72  94 SE9       29.99F
OLATHE IND     FAIR      77  73  87 E6        30.03F
6HR MIN TEMP:  77; 6HR MAX TEMP:  83;

OLATHE EXE     FAIR      77  73  87 E7        30.02F
6HR MIN TEMP:  77; 6HR MAX TEMP:  82;

SALINA         LGT RAIN  80  67  64 SE9       29.96S
6HR MIN TEMP:  80; 6HR MAX TEMP:  86; 6HR PCP: TRACE;

TOPEKA BILLARD FAIR      80  74  81 E8        30.00F
6HR MIN TEMP:  79; 6HR MAX TEMP:  84;

TOPEKA FORBES  FAIR      78  72  81 SE9       30.00F
6HR MIN TEMP:  78; 6HR MAX TEMP:  82;

$$


USA.gov is the U.S. government's official web portal to all federal, state and local government web resources and services.